Weather History for KOFK - November, 2011

Change the Weather History Date:

Tuesday, November 1, 2011

  Actual Average Record
Temperature  
Mean Temperature 51 °F 44 °F  
Max Temperature 62 °F 56 °F 81 °F (1944)
Min Temperature 40 °F 33 °F 13 °F (1911)
Degree Days  
Heating Degree Days 14 21  
Month to date heating degree days 14 21  
Since 1 July heating degree days 557 606  
Cooling Degree Days 0 0  
Month to date cooling degree days 0 0  
Year to date cooling degree days 1059 915  
Growing Degree Days 2 (Base 50)    
Moisture  
Dew Point 34 °F    
Average Humidity 53    
Maximum Humidity 70    
Minimum Humidity 35    
Precipitation  
Precipitation 0.00 in 0.05 in 0.69 in (1972)
Month to date precipitation 0.00 0.05  
Year to date precipitation 20.15 25.34  
Snow  
Snow 0.00 in 0.10 in - ()
Month to date snowfall 0.0 0.1  
Since 1 July snowfall 0.0 0.9  
Snow Depth 0.00 in    
Sea Level Pressure  
Sea Level Pressure 29.89 in    
Wind  
Wind Speed 15 mph (NNW)    
Max Wind Speed 28 mph    
Max Gust Speed 32 mph    
Visibility 10 miles    
Events      
T = Trace of Precipitation, MM = Missing Value Source: NWS Daily Summary

Daily Weather History Graph

Daily Weather History Graph

Search for Another Location

Airport or City:

Trip Planner

Search our weather history database for the weather conditions in past years. The results will help you decide how hot, cold, wet, or windy it might be!

Date:

Astronomy

Nov. 01, 2011 Rise Set
Actual Time 8:02 AM CDT 6:23 PM CDT
Civil Twilight 7:33 AM CDT 6:52 PM CDT
Nautical Twilight 7:00 AM CDT 7:25 PM CDT
Astronomical Twilight 6:27 AM CDT 7:58 PM CDT
Moon 1:50 PM CDT (11/1) No Moon Set
Length of Visible Light 11h 19m
Length of Day
10h 21m
Waxing Crescent, 40% of the Moon is Illuminated
Nov 1
Waxing Crescent
Nov 2
First Quarter
Nov 10
Full
Nov 18
Last Quarter
Nov 25
New

Hourly Weather History & Observations

Time (CDT) Temp. Windchill Dew Point Humidity Pressure Visibility Wind Dir Wind Speed Gust Speed Precip Events Conditions
12:56 AM 53.1 °F - 32.0 °F 45% 29.81 in 10.0 mi South 15.0 mph - N/A   Clear
1:56 AM 51.1 °F - 33.1 °F 50% 29.79 in 10.0 mi South 15.0 mph - N/A   Clear
2:56 AM 50.0 °F - 34.0 °F 54% 29.78 in 10.0 mi SSW 11.5 mph - N/A   Clear
3:56 AM 51.1 °F - 34.0 °F 52% 29.78 in 10.0 mi SSW 11.5 mph - N/A   Clear
4:56 AM 48.9 °F - 34.0 °F 56% 29.79 in 10.0 mi SSW 5.8 mph - N/A   Clear
5:56 AM 42.1 °F 40.2 °F 32.0 °F 67% 29.82 in 10.0 mi SW 3.5 mph - N/A   Clear
6:56 AM 43.0 °F 38.2 °F 34.0 °F 71% 29.81 in 10.0 mi SW 8.1 mph - N/A   Clear
8:56 AM 44.1 °F 39.0 °F 33.1 °F 65% 29.87 in 10.0 mi NW 9.2 mph - N/A   Clear
9:56 AM 50.0 °F - 32.0 °F 50% 29.88 in 10.0 mi North 16.1 mph 23.0 mph N/A   Clear
10:56 AM 54.0 °F - 33.1 °F 45% 29.88 in 10.0 mi North 16.1 mph 27.6 mph N/A   Clear
11:56 AM 59.0 °F - 36.0 °F 42% 29.88 in 10.0 mi North 26.5 mph 32.2 mph N/A   Clear
12:56 PM 60.1 °F - 37.0 °F 42% 29.88 in 10.0 mi North 21.9 mph 28.8 mph N/A   Clear
1:56 PM 61.0 °F - 37.9 °F 42% 29.88 in 10.0 mi North 19.6 mph 27.6 mph N/A   Clear
2:56 PM 61.0 °F - 37.0 °F 41% 29.88 in 10.0 mi NNE 21.9 mph 26.5 mph N/A   Clear
3:56 PM 61.0 °F - 36.0 °F 39% 29.89 in 10.0 mi North 20.7 mph 26.5 mph N/A   Clear
4:56 PM 61.0 °F - 32.0 °F 34% 29.91 in 10.0 mi North 18.4 mph 24.2 mph N/A   Clear
5:56 PM 55.9 °F - 34.0 °F 44% 29.94 in 10.0 mi North 16.1 mph - N/A   Clear
6:56 PM 51.1 °F - 35.1 °F 54% 29.99 in 10.0 mi North 13.8 mph - N/A   Clear
7:56 PM 50.0 °F - 34.0 °F 54% 30.00 in 10.0 mi North 16.1 mph 21.9 mph N/A   Clear
8:56 PM 48.9 °F - 34.0 °F 56% 30.03 in 10.0 mi North 12.7 mph - N/A   Clear
9:56 PM 48.0 °F - 30.9 °F 52% 30.03 in 10.0 mi North 13.8 mph 20.7 mph N/A   Clear
11:56 PM 46.9 °F - 28.0 °F 48% 30.06 in 10.0 mi North 13.8 mph 25.3 mph N/A   Clear